Вернуться в каталог

SL-12 DEB

АктивенUNKNOWN
NORAD 26795·DEBRIS·🇷🇺 Russia

Запущен Nov 23, 1990 с Baikonur Cosmodrome

Loading…

Ближайшие Пролёты (ближайшие 24 часа)

TLE

СвежийSource: Space-Track

Эпоха: Sep 14, 2026, 06:47 UTC

1 26795U 90102G   26257.28317291  .00053637  00000-0  17466+0 0  9993
2 26795  46.2870 354.3709 1950172 187.8593 168.6716 10.29583585153151

Отслеживайте SL-12 DEB в реальном времени с AllMySat

Download on the App Store